TimeCST,TemperatureF,Dew PointF,Humidity,Sea Level PressureIn,VisibilityMPH,Wind Direction,Wind SpeedMPH,Gust SpeedMPH,PrecipitationIn,Events,Conditions,WindDirDegrees,DateUTC
12:53 AM,26.1,15.1,63,30.34,10.0,South,5.8,-,N/A,,Overcast,170,2013-02-02 06:53:00
1:53 AM,26.1,16.0,66,30.34,10.0,South,4.6,-,N/A,,Partly Cloudy,190,2013-02-02 07:53:00
3:53 AM,27.0,18.0,69,30.31,10.0,South,3.5,-,N/A,,Overcast,170,2013-02-02 09:53:00
4:53 AM,27.0,18.0,69,30.29,10.0,SSE,5.8,-,N/A,,Overcast,160,2013-02-02 10:53:00
6:53 AM,28.9,18.0,64,30.27,10.0,South,8.1,-,N/A,,Overcast,180,2013-02-02 12:53:00
7:53 AM,30.9,17.1,57,30.25,10.0,South,11.5,-,N/A,,Overcast,180,2013-02-02 13:53:00
8:53 AM,32.0,24.1,73,30.22,10.0,South,16.1,-,N/A,,Mostly Cloudy,190,2013-02-02 14:53:00
9:53 AM,34.0,26.1,73,30.20,10.0,SSW,15.0,21.9,N/A,,Partly Cloudy,210,2013-02-02 15:53:00
10:17 AM,35.6,26.6,70,30.17,10.0,SSW,15.0,-,N/A,,Mostly Cloudy,200,2013-02-02 16:17:00
10:43 AM,37.4,28.4,70,30.16,10.0,SW,19.6,23.0,N/A,,Mostly Cloudy,230,2013-02-02 16:43:00
10:53 AM,37.9,28.0,68,30.17,10.0,SSW,15.0,-,N/A,,Mostly Cloudy,210,2013-02-02 16:53:00
11:53 AM,41.0,28.9,62,30.13,10.0,SW,17.3,23.0,N/A,,Scattered Clouds,220,2013-02-02 17:53:00
12:53 PM,41.0,26.1,55,30.11,10.0,SW,10.4,19.6,N/A,,Overcast,230,2013-02-02 18:53:00
1:53 PM,42.1,25.0,51,30.09,10.0,WSW,12.7,-,N/A,,Overcast,250,2013-02-02 19:53:00
2:53 PM,39.9,28.9,65,30.09,10.0,SW,13.8,-,N/A,,Overcast,230,2013-02-02 20:53:00
3:53 PM,39.9,28.9,65,30.07,10.0,SW,8.1,-,N/A,,Overcast,220,2013-02-02 21:53:00
4:53 PM,37.9,32.0,79,30.09,10.0,SW,12.7,-,N/A,,Overcast,230,2013-02-02 22:53:00
5:53 PM,37.9,32.0,79,30.10,10.0,WSW,9.2,-,N/A,,Overcast,250,2013-02-02 23:53:00
6:53 PM,36.0,30.0,79,30.12,10.0,WSW,6.9,-,N/A,,Clear,250,2013-02-03 00:53:00
7:53 PM,35.1,30.0,82,30.14,10.0,WSW,6.9,-,N/A,,Mostly Cloudy,240,2013-02-03 01:53:00
8:53 PM,34.0,28.9,82,30.13,10.0,WSW,4.6,-,N/A,,Mostly Cloudy,240,2013-02-03 02:53:00
9:53 PM,35.1,30.0,82,30.13,10.0,SW,5.8,-,N/A,,Overcast,230,2013-02-03 03:53:00
10:53 PM,35.1,30.0,82,30.12,9.0,SW,4.6,-,N/A,,Overcast,230,2013-02-03 04:53:00
11:53 PM,33.1,28.9,85,30.11,8.0,Calm,Calm,-,N/A,,Partly Cloudy,0,2013-02-03 05:53:00